Location: *
(52.2090°N, 4.1550°W)
Time: 10:56:36
(UTC+00:00)

CENTAUR R/B - Pass Details

Date: 19 July 2019
Orbit: 780 x 1408 km, 63.4° (Epoch: 10 August)

Event Time Altitude Azimuth Distance (km) Brightness Sun altitude
Rises 23:03:23 0° 299° (WNW) 3,864 6.4 -15.0°
Reaches altitude 10° 23:06:07 10° 308° (NW) 3,001 5.9 -15.1°
Maximum altitude 23:12:54 39° 16° (NNE) 1,768 4.3 -15.4°
Drops below altitude 10° 23:20:33 10° 83° (E) 3,390 5.2 -15.8°
Sets 23:23:50 0° 91° (E) 4,417 5.8 -15.9°
